| time (UTC) | temp F | wind direction | speed knots | gust knots | rain 1hr in | rain 24hr in | rain mn in | humidity % | barometer mb |
| 20260504192159 | 59 | 252 | 0.0 | 0.0 | 0.00 | 0.00 | 0.00 | 63 | 1011.7 |
| 20260504191647 | 60 | 252 | 0.0 | 0.0 | 0.00 | 0.00 | 0.00 | 63 | 1011.7 |
| 20260504191535 | 60 | 252 | 0.0 | 0.0 | 0.00 | 0.00 | 0.00 | 63 | 1011.4 |
| 20260504191138 | 60 | 252 | 0.0 | 0.0 | 0.00 | 0.00 | 0.00 | 62 | 1011.6 |
| 20260504190625 | 61 | 252 | 0.0 | 0.0 | 0.00 | 0.00 | 0.00 | 61 | 1011.6 |
| 20260504190116 | 61 | 252 | 0.0 | 0.0 | 0.00 | 0.00 | 0.00 | 60 | 1011.6 |
| 20260504190100 | 61 | 252 | 0.0 | 0.0 | 0.00 | 0.00 | 0.00 | 60 | 1011.3 |
| 20260504185603 | 62 | 252 | 0.0 | 0.0 | 0.00 | 0.00 | 0.00 | 59 | 1011.5 |
| 20260504184534 | 63 | 252 | 0.0 | 0.0 | 0.00 | 0.00 | 0.00 | 58 | 1011.4 |
| 20260504184513 | 62 | 252 | 0.0 | 0.0 | 0.00 | 0.00 | 0.00 | 58 | 1011.2 |
| 20260504184023 | 63 | 252 | 0.0 | 0.0 | 0.00 | 0.00 | 0.00 | 57 | 1011.4 |
| 20260504183522 | 64 | 252 | 0.0 | 0.0 | 0.00 | 0.00 | 0.00 | 56 | 1011.3 |
| 20260504183107 | 64 | 252 | 0.0 | 0.9 | 0.00 | 0.00 | 0.00 | 55 | 1011.0 |
| 20260504182509 | 66 | 252 | 0.0 | 0.9 | 0.00 | 0.00 | 0.00 | 54 | 1011.3 |
| 20260504181525 | 67 | 252 | 0.0 | 0.9 | 0.00 | 0.00 | 0.00 | 50 | 1010.9 |
| 20260504181444 | 68 | 252 | 0.0 | 0.9 | 0.00 | 0.00 | 0.00 | 50 | 1011.2 |
| 20260504180936 | 69 | 252 | 0.0 | 0.0 | 0.00 | 0.00 | 0.00 | 49 | 1011.2 |
| 20260504180421 | 70 | 252 | 0.0 | 0.0 | 0.00 | 0.00 | 0.00 | 47 | 1011.1 |
| 20260504180051 | 70 | 252 | 0.0 | 0.0 | 0.00 | 0.00 | 0.00 | 46 | 1010.9 |
| 20260504175912 | 71 | 252 | 0.0 | 0.0 | 0.00 | 0.00 | 0.00 | 45 | 1011.1 |
| 20260504175356 | 72 | 252 | 0.0 | 0.9 | 0.00 | 0.00 | 0.00 | 43 | 1011.1 |
| 20260504174843 | 72 | 252 | 0.0 | 1.7 | 0.00 | 0.00 | 0.00 | 42 | 1011.1 |
| 20260504174514 | 72 | 252 | 0.0 | 2.6 | 0.00 | 0.00 | 0.00 | 40 | 1010.9 |
| 20260504174329 | 73 | 252 | 0.9 | 2.6 | 0.00 | 0.00 | 0.00 | 39 | 1011.1 |
| 20260504173805 | 74 | 252 | 0.9 | 4.3 | 0.00 | 0.00 | 0.00 | 38 | 1011.2 |
| 20260504173254 | 74 | 256 | 1.7 | 5.2 | 0.00 | 0.00 | 0.00 | 38 | 1011.1 |
| 20260504173023 | 74 | 246 | 1.7 | 5.2 | 0.00 | 0.00 | 0.00 | 37 | 1010.8 |
| 20260504172738 | 74 | 236 | 2.6 | 5.2 | 0.00 | 0.00 | 0.00 | 37 | 1011.0 |
| 20260504172225 | 74 | 227 | 2.6 | 8.7 | 0.00 | 0.00 | 0.00 | 37 | 1011.0 |
| 20260504171709 | 75 | 201 | 2.6 | 8.7 | 0.00 | 0.00 | 0.00 | 37 | 1011.0 |
| 20260504171541 | 74 | 262 | 2.6 | 7.0 | 0.00 | 0.00 | 0.00 | 37 | 1010.8 |
| 20260504171155 | 75 | 248 | 2.6 | 7.8 | 0.00 | 0.00 | 0.00 | 37 | 1011.0 |
| 20260504170639 | 75 | 240 | 3.5 | 9.6 | 0.00 | 0.00 | 0.00 | 37 | 1011.0 |
| 20260504170125 | 75 | 240 | 4.3 | 9.6 | 0.00 | 0.00 | 0.00 | 37 | 1011.0 |
| 20260504170109 | 75 | 234 | 2.6 | 9.6 | 0.00 | 0.00 | 0.00 | 37 | 1010.7 |
| 20260504160352 | 75 | 257 | 3.5 | 11.3 | 0.00 | 0.00 | 0.00 | 39 | 1011.1 |
| 20260504151139 | 76 | 251 | 5.2 | 11.3 | 0.00 | 0.00 | 0.00 | 39 | 1011.3 |
| 20260504150628 | 76 | 254 | 5.2 | 11.3 | 0.00 | 0.00 | 0.00 | 40 | 1011.3 |
| 20260504140923 | 78 | 215 | 6.1 | 14.8 | 0.00 | 0.00 | 0.00 | 36 | 1011.5 |
| 20260504140414 | 78 | 217 | 7.0 | 13.9 | 0.00 | 0.00 | 0.00 | 35 | 1011.6 |
| 20260504140151 | 78 | 221 | 7.0 | 13.0 | 0.00 | 0.00 | 0.00 | 36 | 1011.4 |
| 20260504130818 | 77 | 259 | 5.2 | 11.3 | 0.00 | 0.00 | 0.00 | 38 | 1012.2 |
| 20260504130315 | 77 | 178 | 5.2 | 13.9 | 0.00 | 0.00 | 0.00 | 38 | 1012.2 |
| 20260504120145 | 74 | 241 | 6.1 | 14.8 | 0.00 | 0.00 | 0.00 | 40 | 1012.7 |
| 20260504110436 | 75 | 239 | 6.1 | 10.4 | 0.00 | 0.00 | 0.00 | 38 | 1013.0 |
| 20260504081726 | 70 | 169 | 4.3 | 10.4 | 0.00 | 0.00 | 0.00 | 41 | 1014.3 |
| 20260504081558 | 69 | 252 | 5.2 | 9.6 | 0.00 | 0.00 | 0.00 | 40 | 1014.1 |
| 20260504081213 | 70 | 237 | 5.2 | 13.0 | 0.00 | 0.00 | 0.00 | 39 | 1014.3 |
| 20260504080658 | 69 | 211 | 4.3 | 13.0 | 0.00 | 0.00 | 0.00 | 40 | 1014.3 |
| 20260504060217 | 62 | 208 | 1.7 | 7.8 | 0.00 | 0.00 | 0.00 | 53 | 1014.4 |
| 20260504060155 | 62 | 218 | 1.7 | 7.8 | 0.00 | 0.00 | 0.00 | 53 | 1014.3 |
| 20260504050633 | 55 | 119 | 1.7 | 5.2 | 0.00 | 0.00 | 0.00 | 66 | 1014.5 |
| 20260504050119 | 53 | 138 | 0.0 | 3.5 | 0.00 | 0.00 | 0.00 | 72 | 1014.6 |
| 20260504045603 | 53 | 189 | 0.0 | 0.9 | 0.00 | 0.00 | 0.00 | 76 | 1014.7 |
| 20260504045057 | 52 | 189 | 0.0 | 0.0 | 0.00 | 0.00 | 0.00 | 78 | 1014.7 |
| 20260504044629 | 50 | 189 | 0.0 | 0.0 | 0.00 | 0.00 | 0.00 | 80 | 1014.6 |
| 20260504044549 | 50 | 189 | 0.0 | 0.0 | 0.00 | 0.00 | 0.00 | 80 | 1014.7 |
| 20260504044041 | 49 | 189 | 0.0 | 0.0 | 0.00 | 0.00 | 0.00 | 81 | 1014.7 |
| 20260504043534 | 49 | 189 | 0.0 | 0.0 | 0.00 | 0.00 | 0.00 | 83 | 1014.6 |
| 20260504043030 | 48 | 189 | 0.0 | 0.0 | 0.00 | 0.00 | 0.00 | 85 | 1014.6 |
| 20260504043011 | 47 | 189 | 0.0 | 0.0 | 0.00 | 0.00 | 0.00 | 85 | 1014.5 |
| 20260504042531 | 47 | 189 | 0.0 | 0.0 | 0.00 | 0.00 | 0.00 | 87 | 1014.6 |
| 20260504042021 | 45 | 189 | 0.0 | 0.0 | 0.00 | 0.00 | 0.00 | 87 | 1014.5 |
| 20260504040451 | 42 | 189 | 0.0 | 0.0 | 0.00 | 0.00 | 0.00 | 88 | 1014.5 |
| 20260504040017 | 41 | 189 | 0.0 | 0.0 | 0.00 | 0.00 | 0.00 | 87 | 1014.3 |
| 20260504035942 | 42 | 189 | 0.0 | 0.0 | 0.00 | 0.00 | 0.00 | 87 | 1014.5 |
| 20260504035429 | 41 | 189 | 0.0 | 0.0 | 0.00 | 0.00 | 0.00 | 87 | 1014.4 |
| 20260504034926 | 41 | 189 | 0.0 | 0.0 | 0.00 | 0.00 | 0.00 | 87 | 1014.4 |
| 20260504034559 | 41 | 189 | 0.0 | 0.0 | 0.00 | 0.00 | 0.00 | 86 | 1014.3 |
| 20260504034412 | 41 | 189 | 0.0 | 0.0 | 0.00 | 0.00 | 0.00 | 86 | 1014.4 |
| 20260504033859 | 41 | 189 | 0.0 | 0.0 | 0.00 | 0.00 | 0.00 | 86 | 1014.4 |
| 20260504033347 | 41 | 189 | 0.0 | 0.0 | 0.00 | 0.00 | 0.00 | 86 | 1014.3 |
| 20260504033015 | 41 | 189 | 0.0 | 0.0 | 0.00 | 0.00 | 0.00 | 86 | 1014.2 |
| 20260504032836 | 41 | 189 | 0.0 | 0.0 | 0.00 | 0.00 | 0.00 | 86 | 1014.3 |
| 20260504032322 | 41 | 189 | 0.0 | 0.0 | 0.00 | 0.00 | 0.00 | 85 | 1014.3 |
| 20260504031821 | 42 | 189 | 0.0 | 0.0 | 0.00 | 0.00 | 0.00 | 86 | 1014.3 |
| 20260504031550 | 41 | 189 | 0.0 | 0.0 | 0.00 | 0.00 | 0.00 | 86 | 1014.2 |
| 20260504031307 | 42 | 189 | 0.0 | 0.0 | 0.00 | 0.00 | 0.00 | 86 | 1014.3 |
| 20260504030022 | 41 | 189 | 0.0 | 0.0 | 0.00 | 0.00 | 0.00 | 85 | 1014.1 |
| 20260504025723 | 42 | 189 | 0.0 | 0.0 | 0.00 | 0.00 | 0.00 | 85 | 1014.2 |
| 20260504024706 | 42 | 189 | 0.0 | 0.0 | 0.00 | 0.00 | 0.00 | 85 | 1014.1 |
| 20260504024536 | 42 | 189 | 0.0 | 0.0 | 0.00 | 0.00 | 0.00 | 85 | 1013.9 |
| 20260504024149 | 42 | 189 | 0.0 | 0.0 | 0.00 | 0.00 | 0.00 | 84 | 1014.1 |
| 20260504023638 | 42 | 189 | 0.0 | 0.0 | 0.00 | 0.00 | 0.00 | 84 | 1014.0 |
| 20260504023125 | 42 | 189 | 0.0 | 0.0 | 0.00 | 0.00 | 0.00 | 84 | 1014.0 |
| 20260504023105 | 42 | 189 | 0.0 | 0.0 | 0.00 | 0.00 | 0.00 | 84 | 1013.9 |
| 20260504022610 | 43 | 189 | 0.0 | 0.0 | 0.00 | 0.00 | 0.00 | 84 | 1014.0 |
| 20260504022059 | 43 | 189 | 0.0 | 0.0 | 0.00 | 0.00 | 0.00 | 84 | 1014.1 |
| 20260504021625 | 42 | 189 | 0.0 | 0.0 | 0.00 | 0.00 | 0.00 | 84 | 1013.9 |
| 20260504021548 | 43 | 189 | 0.0 | 0.0 | 0.00 | 0.00 | 0.00 | 84 | 1014.1 |
| 20260504021033 | 43 | 189 | 0.0 | 0.0 | 0.00 | 0.00 | 0.00 | 84 | 1014.1 |
| 20260504020523 | 43 | 189 | 0.0 | 0.0 | 0.00 | 0.00 | 0.00 | 83 | 1014.0 |
| 20260504020049 | 43 | 189 | 0.0 | 0.0 | 0.00 | 0.00 | 0.00 | 83 | 1013.9 |
| 20260504014931 | 44 | 189 | 0.0 | 0.0 | 0.00 | 0.00 | 0.00 | 82 | 1014.0 |
| 20260504014600 | 43 | 189 | 0.0 | 0.0 | 0.00 | 0.00 | 0.00 | 82 | 1013.9 |
| 20260504014422 | 44 | 189 | 0.0 | 0.0 | 0.00 | 0.00 | 0.00 | 82 | 1014.0 |
| 20260504013905 | 44 | 189 | 0.0 | 0.0 | 0.00 | 0.00 | 0.00 | 81 | 1014.0 |
| 20260504013351 | 44 | 189 | 0.0 | 0.0 | 0.00 | 0.00 | 0.00 | 81 | 1014.0 |
| 20260504013017 | 44 | 189 | 0.0 | 0.0 | 0.00 | 0.00 | 0.00 | 81 | 1013.9 |
| 20260504012835 | 44 | 189 | 0.0 | 0.0 | 0.00 | 0.00 | 0.00 | 81 | 1014.0 |
| 20260504012324 | 44 | 189 | 0.0 | 0.0 | 0.00 | 0.00 | 0.00 | 81 | 1014.0 |
| 20260504011821 | 45 | 189 | 0.0 | 0.0 | 0.00 | 0.00 | 0.00 | 80 | 1014.0 |
| 20260504011537 | 44 | 189 | 0.0 | 0.0 | 0.00 | 0.00 | 0.00 | 80 | 1013.9 |
| 20260504011253 | 45 | 189 | 0.0 | 0.0 | 0.00 | 0.00 | 0.00 | 79 | 1014.0 |
| 20260504010738 | 45 | 189 | 0.0 | 0.0 | 0.00 | 0.00 | 0.00 | 78 | 1014.0 |
| 20260504010244 | 46 | 189 | 0.0 | 0.0 | 0.00 | 0.00 | 0.00 | 78 | 1014.0 |
| 20260504010003 | 46 | 189 | 0.0 | 0.0 | 0.00 | 0.00 | 0.00 | 78 | 1013.9 |
| 20260504005719 | 46 | 189 | 0.0 | 0.0 | 0.00 | 0.00 | 0.00 | 78 | 1014.0 |
| 20260504005205 | 47 | 189 | 0.0 | 0.0 | 0.00 | 0.00 | 0.00 | 77 | 1014.1 |
| 20260504004651 | 47 | 189 | 0.0 | 0.0 | 0.00 | 0.00 | 0.00 | 76 | 1014.0 |
| 20260504004527 | 47 | 189 | 0.0 | 0.0 | 0.00 | 0.00 | 0.00 | 76 | 1013.9 |
| 20260504004135 | 47 | 189 | 0.0 | 0.0 | 0.00 | 0.00 | 0.00 | 76 | 1014.0 |
| 20260504003622 | 47 | 189 | 0.0 | 0.0 | 0.00 | 0.00 | 0.00 | 76 | 1014.0 |
| 20260504003105 | 47 | 189 | 0.0 | 1.7 | 0.00 | 0.00 | 0.00 | 77 | 1014.0 |
| 20260504003041 | 47 | 189 | 0.0 | 1.7 | 0.00 | 0.00 | 0.00 | 77 | 1013.9 |
| 20260504002552 | 47 | 189 | 0.0 | 1.7 | 0.00 | 0.00 | 0.00 | 76 | 1014.1 |
| 20260504002036 | 47 | 208 | 0.0 | 0.0 | 0.00 | 0.00 | 0.00 | 75 | 1014.1 |
| 20260504001613 | 46 | 208 | 0.0 | 0.0 | 0.00 | 0.00 | 0.00 | 75 | 1013.9 |
| 20260504001526 | 47 | 208 | 0.0 | 0.0 | 0.00 | 0.00 | 0.00 | 75 | 1014.2 |
| 20260504001008 | 47 | 208 | 0.0 | 0.0 | 0.00 | 0.00 | 0.00 | 74 | 1014.2 |
| 20260504000123 | 47 | 208 | 0.0 | 0.0 | 0.00 | 0.00 | 0.00 | 72 | 1014.1 |
| 20260503235425 | 48 | 208 | 0.0 | 0.0 | 0.00 | 0.00 | 0.00 | 71 | 1014.1 |
| 20260503234643 | 48 | 208 | 0.0 | 0.0 | 0.00 | 0.00 | 0.00 | 70 | 1014.1 |
| 20260503234401 | 49 | 208 | 0.0 | 0.0 | 0.00 | 0.00 | 0.00 | 69 | 1014.2 |
| 20260503233845 | 49 | 208 | 0.0 | 0.0 | 0.00 | 0.00 | 0.00 | 69 | 1014.2 |
| 20260503233333 | 49 | 208 | 0.0 | 0.0 | 0.00 | 0.00 | 0.00 | 69 | 1014.3 |
| 20260503233100 | 49 | 208 | 0.0 | 0.0 | 0.00 | 0.00 | 0.00 | 68 | 1014.2 |
| 20260503232817 | 49 | 208 | 0.0 | 0.0 | 0.00 | 0.00 | 0.00 | 68 | 1014.2 |
| 20260503232307 | 50 | 208 | 0.0 | 0.0 | 0.00 | 0.00 | 0.00 | 67 | 1014.3 |
| 20260503231754 | 50 | 208 | 0.0 | 0.0 | 0.00 | 0.00 | 0.00 | 66 | 1014.3 |
| 20260503231524 | 50 | 208 | 0.0 | 0.0 | 0.00 | 0.00 | 0.00 | 65 | 1014.2 |
| 20260503231239 | 51 | 208 | 0.0 | 0.0 | 0.00 | 0.00 | 0.00 | 64 | 1014.4 |
| 20260503230726 | 52 | 208 | 0.0 | 0.0 | 0.00 | 0.00 | 0.00 | 63 | 1014.4 |
| 20260503230211 | 52 | 208 | 0.0 | 0.0 | 0.00 | 0.00 | 0.00 | 61 | 1014.4 |
| 20260503230042 | 52 | 208 | 0.0 | 0.0 | 0.00 | 0.00 | 0.00 | 61 | 1014.3 |
| 20260503225656 | 53 | 208 | 0.0 | 0.0 | 0.00 | 0.00 | 0.00 | 60 | 1014.4 |
| 20260503225144 | 54 | 208 | 0.0 | 0.0 | 0.00 | 0.00 | 0.00 | 59 | 1014.4 |
| 20260503224643 | 55 | 208 | 0.0 | 0.0 | 0.00 | 0.00 | 0.00 | 58 | 1014.4 |
| 20260503224517 | 54 | 208 | 0.0 | 0.0 | 0.00 | 0.00 | 0.00 | 58 | 1014.3 |
| 20260503224130 | 56 | 208 | 0.0 | 0.0 | 0.00 | 0.00 | 0.00 | 57 | 1014.4 |
| 20260503223626 | 56 | 208 | 0.0 | 0.9 | 0.00 | 0.00 | 0.00 | 55 | 1014.4 |
| 20260503223122 | 57 | 208 | 0.0 | 0.9 | 0.00 | 0.00 | 0.00 | 54 | 1014.4 |
| 20260503222619 | 58 | 209 | 0.0 | 1.7 | 0.00 | 0.00 | 0.00 | 52 | 1014.4 |
| 20260503222113 | 58 | 209 | 0.0 | 1.7 | 0.00 | 0.00 | 0.00 | 51 | 1014.4 |
| 20260503221602 | 59 | 209 | 0.0 | 0.9 | 0.00 | 0.00 | 0.00 | 50 | 1014.5 |
| 20260503221544 | 58 | 209 | 0.0 | 0.9 | 0.00 | 0.00 | 0.00 | 50 | 1014.3 |
| 20260503220100 | 60 | 209 | 0.0 | 1.7 | 0.00 | 0.00 | 0.00 | 48 | 1014.6 |
| 20260503220031 | 59 | 209 | 0.0 | 1.7 | 0.00 | 0.00 | 0.00 | 48 | 1014.5 |
| 20260503215543 | 60 | 209 | 0.0 | 1.7 | 0.00 | 0.00 | 0.00 | 47 | 1014.6 |
| 20260503214551 | 61 | 209 | 0.0 | 1.7 | 0.00 | 0.00 | 0.00 | 46 | 1014.5 |
| 20260503214513 | 62 | 209 | 0.9 | 1.7 | 0.00 | 0.00 | 0.00 | 46 | 1014.6 |
| 20260503213959 | 62 | 209 | 0.9 | 5.2 | 0.00 | 0.00 | 0.00 | 45 | 1014.7 |
| 20260503213443 | 62 | 223 | 0.9 | 3.5 | 0.00 | 0.00 | 0.00 | 45 | 1014.7 |
| 20260503213018 | 62 | 221 | 0.9 | 3.5 | 0.00 | 0.00 | 0.00 | 45 | 1014.5 |
| 20260503212933 | 62 | 219 | 1.7 | 5.2 | 0.00 | 0.00 | 0.00 | 44 | 1014.7 |
| 20260503212432 | 62 | 221 | 1.7 | 5.2 | 0.00 | 0.00 | 0.00 | 44 | 1014.7 |
| 20260503211919 | 63 | 235 | 1.7 | 6.1 | 0.00 | 0.00 | 0.00 | 44 | 1014.7 |
| 20260503211544 | 62 | 254 | 0.9 | 5.2 | 0.00 | 0.00 | 0.00 | 43 | 1014.6 |
| 20260503211405 | 63 | 230 | 2.6 | 6.1 | 0.00 | 0.00 | 0.00 | 43 | 1014.7 |
| 20260503210848 | 63 | 223 | 1.7 | 6.1 | 0.00 | 0.00 | 0.00 | 43 | 1014.8 |
| 20260503210104 | 63 | 196 | 1.7 | 6.1 | 0.00 | 0.00 | 0.00 | 42 | 1014.7 |
| 20260503205813 | 64 | 212 | 3.5 | 8.7 | 0.00 | 0.00 | 0.00 | 42 | 1014.8 |
| 20260503205259 | 64 | 223 | 3.5 | 8.7 | 0.00 | 0.00 | 0.00 | 42 | 1014.8 |
| 20260503204738 | 64 | 215 | 3.5 | 7.8 | 0.00 | 0.00 | 0.00 | 42 | 1014.8 |
| 20260503204506 | 63 | 238 | 3.5 | 7.8 | 0.00 | 0.00 | 0.00 | 42 | 1014.7 |
| 20260503204222 | 64 | 200 | 3.5 | 7.8 | 0.00 | 0.00 | 0.00 | 42 | 1014.8 |
| 20260503203713 | 64 | 206 | 3.5 | 7.0 | 0.00 | 0.00 | 0.00 | 42 | 1014.8 |
| 20260503203202 | 64 | 161 | 3.5 | 7.0 | 0.00 | 0.00 | 0.00 | 41 | 1014.7 |
| 20260503203034 | 63 | 204 | 0.9 | 7.0 | 0.00 | 0.00 | 0.00 | 41 | 1014.6 |
| 20260503202647 | 64 | 203 | 3.5 | 7.0 | 0.00 | 0.00 | 0.00 | 41 | 1014.7 |
| 20260503202134 | 64 | 143 | 3.5 | 7.8 | 0.00 | 0.00 | 0.00 | 42 | 1014.7 |
| 20260503201628 | 64 | 232 | 3.5 | 7.8 | 0.00 | 0.00 | 0.00 | 42 | 1014.7 |
| 20260503201502 | 63 | 200 | 2.6 | 6.1 | 0.00 | 0.00 | 0.00 | 42 | 1014.6 |
| 20260503201115 | 64 | 198 | 3.5 | 7.8 | 0.00 | 0.00 | 0.00 | 42 | 1014.7 |
| 20260503200612 | 64 | 218 | 2.6 | 7.8 | 0.00 | 0.00 | 0.00 | 42 | 1014.7 |
| 20260503200046 | 63 | 224 | 1.7 | 5.2 | 0.00 | 0.00 | 0.00 | 43 | 1014.6 |
| 20260503195601 | 64 | 202 | 1.7 | 5.2 | 0.00 | 0.00 | 0.00 | 43 | 1014.7 |
| 20260503194550 | 64 | 228 | 1.7 | 4.3 | 0.00 | 0.00 | 0.00 | 45 | 1014.7 |
| 20260503194525 | 63 | 209 | 0.0 | 4.3 | 0.00 | 0.00 | 0.00 | 45 | 1014.6 |
| 20260503193028 | 64 | 228 | 0.9 | 2.6 | 0.00 | 0.00 | 0.00 | 48 | 1014.8 |
| 20260503193002 | 63 | 228 | 0.0 | 2.6 | 0.00 | 0.00 | 0.00 | 48 | 1014.7 |
| 20260503192524 | 64 | 229 | 0.9 | 2.6 | 0.00 | 0.00 | 0.00 | 49 | 1014.7 |